Location: Curupao
(10.4996°N, 66.6442°W)
Time: 00:45:25
(UTC+00:00)

Sylda 5 - Pass Details

Date: 23 May 2024
Orbit: 608 x 35442 km, 6.4° (Epoch: 15 June)

Event Time Altitude Azimuth Distance (km) Brightness Sun altitude
Rises 00:04:29 0° 252° (WSW) 7,056 8.1 -19.2°
Reaches altitude 10° 00:11:57 10° 237° (WSW) 3,781 6.4 -20.8°
Maximum altitude 00:17:19 20° 189° (S) 1,828 4.3 -22.0°
Enters shadow 00:17:44 20° 182° (S) 1,769 4.1 -22.1°
